SL-8 DEB, 21208

Orbit data source: Space-Track

SL-8 DEB, 21208 is space debris in LEO originally from a launch on Tue, 12 Feb 1991 UTC launched from the Plesetsk Missile And Space Complex (PKMTR). Debris objects in space refer to the collection of defunct objects orbiting the Earth. Examples of debris include non-operational satellites, rocket bodies, and fragments generated from explosions, collisions, or faulty payload assembly.

Loading next visibility...
Identifier
21208, 1991-009BB
Orbit
LEO
Country
Flag of CISCIS
Related business
Manufacturer
Unknown
Mission
Spacecraft
Bus & Motor
Unknown
Mass
Unknown
Launch date (UTC)
1991-02-12 (35 years ago)
Launch vehicle
Unknown
Launch site
Plesetsk Missile And Space Complex (PKMTR)
Object type
Payload
Rocket body
Debris
Shape & HBR
Unknown shape, 0.1 m
Radar Cross Section
Medium (>0.1 m² and <1 m²)

Expand to show TLE details & history
Last TLE update: 23 hours ago

TLE from 23 hours ago
0 SL-8 DEB
1 21208U 91009BB  26170.93580152  .00000053  00000-0  55610-3 0  9999
2 21208  73.9568 137.4222 0148613   5.6328  22.8635 12.31153307582211
Epoch: 2026-06-19T22:27Z
TLE epoch observation values (Epoch: 2026-06-19T22:27:33.251Z)
Latitude
27.97688°
Longitude
-98.88137°
Altitude
1,439.03 km
Speed
7.193 km/s
True Right ascension
09h 44m 39s
True Declination
27° 50' 49"
Sunlit
Object was in daylight at epoch
Visualization orbit readout
Latitude
Unknown
Longitude
Unknown
Altitude
Unknown
Speed
Unknown
Apparent Right ascension
Unknown
Apparent Declination
Unknown
Sunlit
N/A
Visualization observer readout
Local Sidereal Time
08:46:29
Azimuth
Unknown
Elevation
Unknown
Doppler factor
Unknown
Orbital elements
Apogee altitude
1,659.898 km
Perigee altitude
1,424.485 km
Semi-major axis
7,920.329 km
Eccentricity
0.01486
Inclination
73.9568°
RAAN
137.4222°
Arg. of periapsis
5.6328°
True anomaly
23.53667°
Mean anomaly
22.8635°
Eccentric anomaly
23.19892°
Mean motion
3.07913 °/min
Orbital period
116.92 mins
BSTAR
0.0005561
Loading maneuver chart data...
Computing Atmospheric mass density...
Loading historical data...
Loading historical data...
Loading historical data...
Loading historical data...
Loading historical data...
Loading historical data...
Loading historical data...

Documentation

Showing up to 5 results
|